SL-3 R/B (12465 NORAD) Tracking and Keplerian Element Data

This shows tracking and keplerian element data for the satellite.

Feedback or suggestion? Click here.




ElementValue
Catalog12465
NameSL-3 R/B
Epoch Orbit33111
Epoch Day13.15068553
Epoch Year2024
RAAN138.9757
Inclination81.241
Eccentricity0.0028964
Argument of Perigee198.9873
Mean Anonmoly161.0282
Mean Motion15.22171961
Decay Rate0.00010216
L11 12465U 81046B 24013.15068553 .00010216 00000+0 43890-3 0 9996
L22 12465 81.2410 138.9757 0028964 198.9873 161.0282 15.22171961331114



Live tracking and technical data element details for SL-3 R/B (NORAD 12465). SL-3 R/B can be tracked NOW for your location showing map with azimuth and elevation plus other details from your city location.







IsCatalogInMostPopularTable: catalog: 12465, numindb: 327
Update: records affected: 1



GetName: 12465 SL-3 R/B

Hit Count: updated at: Fri, 19 Apr 2024 12:30:39 GMT